Date String (YYYY-MM-DD hh:mm:ss) UTC,Instrument flags,Ambient pressure (hPa),Sample flow (lpm),Bypass flow (lpm),Sample temperature (°C),Ambient temperature (°C),ASC tube jacket temperature (°C),LED temperature (°C),Box temperature (°C),Sample RH (%),Span deviation,Mass concentration (μg/m³),Mass concentration (μg/m³),Mass concentration (μg/m³)
DateTimeUTC,F1_M11,P_M11,Q1_M11,Q2_M11,T1_M11,T2_M11,T3_M11,T4_M11,T5_M11,U1_M11,ZSPAN_M11,X0_M11,X2_M11,X1_M11
2021-08-25 00:00:00,,0827.0,4.99,0.00,28.7,26.7,00.0,37.8,30.4,15.6,0001.8,0011.71,0004.74,0004.06
2021-08-25 00:01:00,,0827.1,5.00,0.00,28.8,27.2,00.0,37.8,30.6,16.1,0002.2,0011.92,0004.71,0004.06
2021-08-25 00:02:00,,0827.6,5.00,0.00,28.8,27.5,00.0,37.8,30.7,16.4,0002.1,0011.62,0004.71,0004.06
2021-08-25 00:03:00,,0827.3,5.00,0.00,28.9,27.9,00.0,37.8,30.9,16.0,0002.2,0011.84,0004.70,0004.07
2021-08-25 00:04:00,,0827.3,5.01,0.00,28.9,27.3,00.0,37.8,30.7,15.9,0002.5,0012.28,0004.71,0004.07
2021-08-25 00:05:00,,0827.4,4.99,0.00,28.8,25.7,00.0,37.8,30.1,15.7,0002.9,0012.52,0004.74,0004.06
2021-08-25 00:06:00,,0827.3,4.99,0.00,28.7,25.6,00.0,37.8,30.1,15.7,0002.7,0012.55,0004.70,0004.06
2021-08-25 00:07:00,,0827.3,5.01,0.00,28.7,26.0,00.0,37.8,30.2,16.0,0002.4,0012.77,0004.68,0004.06
2021-08-25 00:08:00,,0827.2,5.00,0.00,28.7,26.5,00.0,37.7,30.3,16.4,0002.1,0011.94,0004.68,0004.06
2021-08-25 00:09:00,,0827.2,5.01,0.00,28.7,26.9,00.0,37.8,30.5,16.6,0002.2,0012.10,0004.67,0004.06
2021-08-25 00:10:00,,0827.0,5.00,0.00,28.8,27.4,00.0,37.8,30.6,16.4,0002.4,0012.41,0004.70,0004.06
2021-08-25 00:11:00,,0827.3,4.99,0.00,28.8,27.7,00.0,37.8,30.8,15.8,0001.8,0012.14,0004.72,0004.06
2021-08-25 00:12:00,,0827.2,4.99,0.00,28.9,28.0,00.0,37.8,30.9,15.6,0001.4,0012.39,0004.76,0004.06
2021-08-25 00:13:00,,0827.1,5.00,0.00,29.0,27.6,00.0,37.8,30.8,15.9,0001.4,0012.66,0004.74,0004.07
2021-08-25 00:14:00,,0827.2,5.00,0.00,28.8,25.9,00.0,37.8,30.3,15.6,0001.2,0012.99,0004.71,0004.06
2021-08-25 00:15:00,,0827.2,5.01,0.00,28.7,25.6,00.0,37.8,30.2,15.4,0000.7,0013.34,0004.71,0004.07
2021-08-25 00:16:00,,0827.1,4.99,0.00,28.7,26.1,00.0,37.8,30.3,15.8,0000.7,0013.36,0004.68,0004.07
2021-08-25 00:17:00,,0827.1,5.00,0.00,28.7,26.5,00.0,37.8,30.4,15.9,0001.1,0012.96,0004.68,0004.07
2021-08-25 00:18:00,,0827.1,5.00,0.00,28.7,27.0,00.0,37.8,30.5,15.6,0001.3,0012.65,0004.71,0004.08
2021-08-25 00:19:00,,0827.2,4.99,0.00,28.8,27.4,00.0,37.8,30.7,15.6,0001.6,0012.51,0004.71,0004.08
2021-08-25 00:20:00,,0827.1,5.01,0.00,28.9,27.7,00.0,37.8,30.8,15.6,0001.5,0012.75,0004.71,0004.09
2021-08-25 00:21:00,,0827.2,4.98,0.00,28.9,27.9,00.0,37.8,30.9,15.7,0001.6,0012.80,0004.67,0004.11
2021-08-25 00:22:00,,0827.1,5.01,0.00,28.9,26.6,00.0,37.8,30.5,16.0,0001.8,0012.56,0004.66,0004.10
2021-08-25 00:23:00,,0827.2,4.99,0.00,28.8,25.4,00.0,37.8,30.2,16.0,0002.2,0012.00,0004.64,0004.10
2021-08-25 00:24:00,,0827.0,4.99,0.00,28.7,25.7,00.0,37.8,30.2,15.8,0002.1,0011.71,0004.69,0004.12
2021-08-25 00:25:00,,0827.1,5.00,0.00,28.7,26.2,00.0,37.8,30.3,15.6,0002.1,0011.75,0004.72,0004.13
2021-08-25 00:26:00,,0827.1,4.99,0.00,28.7,26.7,00.0,37.8,30.4,14.9,0002.2,0011.37,0004.70,0004.13
2021-08-25 00:27:00,,0827.1,5.02,0.00,28.7,27.1,00.0,37.8,30.6,15.2,0002.3,0011.05,0004.68,0004.14
2021-08-25 00:28:00,,0827.1,5.00,0.00,28.8,27.5,00.0,37.8,30.7,15.6,0002.2,0010.72,0004.70,0004.15
2021-08-25 00:29:00,,0827.2,4.99,0.00,28.9,27.8,00.0,37.8,30.8,15.7,0002.5,0011.25,0004.68,0004.14
2021-08-25 00:30:00,,0827.1,5.00,0.00,29.0,28.0,00.0,37.8,30.9,15.6,0002.5,0011.75,0004.69,0004.15
2021-08-25 00:31:00,,0827.2,5.00,0.00,28.9,26.9,00.0,37.8,30.6,15.8,0002.3,0011.30,0004.73,0004.16
2021-08-25 00:32:00,,0827.2,5.01,0.00,28.8,25.5,00.0,37.8,30.1,16.3,0002.0,0011.17,0004.75,0004.15
2021-08-25 00:33:00,,0827.2,4.99,0.00,28.7,25.7,00.0,37.8,30.2,16.4,0001.8,0012.00,0004.76,0004.17
2021-08-25 00:34:00,,0827.2,5.00,0.00,28.7,26.2,00.0,37.8,30.3,16.3,0001.9,0012.13,0004.76,0004.17
2021-08-25 00:35:00,,0827.2,5.00,0.00,28.7,26.6,00.0,37.8,30.4,16.1,0002.2,0012.71,0004.73,0004.14
2021-08-25 00:36:00,,0827.2,5.01,0.00,28.7,27.1,00.0,37.8,30.6,16.3,0002.5,0012.83,0004.73,0004.13
2021-08-25 00:37:00,,0827.2,4.99,0.00,28.8,27.5,00.0,37.8,30.7,16.3,0002.1,0012.82,0004.72,0004.12
2021-08-25 00:38:00,,0827.2,5.00,0.00,28.9,27.8,00.0,37.8,30.8,16.7,0002.0,0014.19,0004.75,0004.11
2021-08-25 00:39:00,,0827.2,5.00,0.00,29.0,28.1,00.0,37.8,30.9,16.8,0002.3,0014.29,0004.78,0004.12
2021-08-25 00:40:00,,0827.2,4.99,0.00,29.0,27.0,00.0,37.9,30.6,16.9,0002.1,0013.65,0004.75,0004.12
2021-08-25 00:41:00,,0827.2,5.00,0.00,28.8,25.4,00.0,37.8,30.1,17.1,0001.8,0013.26,0004.73,0004.12
2021-08-25 00:42:00,,0827.2,5.01,0.00,28.7,25.6,00.0,37.8,30.1,17.2,0001.8,0013.66,0004.72,0004.10
2021-08-25 00:43:00,,0827.1,4.99,0.00,28.7,26.0,00.0,37.8,30.2,17.3,0001.9,0014.13,0004.76,0004.10
2021-08-25 00:44:00,,0827.2,5.00,0.00,28.7,26.5,00.0,37.8,30.4,17.5,0001.9,0014.18,0004.78,0004.09
2021-08-25 00:45:00,,0827.2,5.00,0.00,28.7,27.0,00.0,37.8,30.5,17.5,0001.8,0015.07,0004.79,0004.08
2021-08-25 00:46:00,,0827.2,5.00,0.00,28.8,27.4,00.0,37.8,30.7,17.2,0002.1,0015.30,0004.85,0004.08
2021-08-25 00:47:00,,0827.2,5.00,0.00,28.9,27.8,00.0,37.8,30.8,17.4,0002.1,0015.10,0004.84,0004.08
2021-08-25 00:48:00,,0827.2,4.98,0.00,28.9,27.6,00.0,37.8,30.8,17.7,0001.2,0015.43,0004.88,0004.09
2021-08-25 00:49:00,,0827.2,5.00,0.00,28.8,25.9,00.0,37.8,30.3,17.9,0002.6,0014.60,0004.88,0004.10
2021-08-25 00:50:00,,0827.2,4.99,0.00,28.7,25.3,00.0,37.8,30.0,18.9,0002.2,0015.33,0004.88,0004.10
2021-08-25 00:51:00,,0827.2,5.00,0.00,28.6,25.7,00.0,37.8,30.1,19.3,0002.0,0017.12,0004.92,0004.09
2021-08-25 00:52:00,,0827.2,5.00,0.00,28.6,26.2,00.0,37.7,30.3,19.1,0002.1,0017.21,0004.93,0004.09
2021-08-25 00:53:00,,0827.3,5.01,0.00,28.6,26.7,00.0,37.7,30.4,18.8,0002.2,0017.04,0004.94,0004.10
2021-08-25 00:54:00,,0827.3,5.00,0.00,28.7,27.1,00.0,37.7,30.5,18.8,0002.2,0016.97,0004.91,0004.10
2021-08-25 00:55:00,,0827.3,5.01,0.00,28.8,27.5,00.0,37.8,30.7,18.6,0002.3,0016.10,0004.87,0004.11
2021-08-25 00:56:00,,0827.3,5.00,0.00,28.8,27.8,00.0,37.8,30.8,18.6,0002.5,0015.45,0004.87,0004.12
2021-08-25 00:57:00,,0827.4,5.01,0.00,28.9,28.1,00.0,37.8,30.9,18.5,0002.1,0014.62,0004.80,0004.13
2021-08-25 00:58:00,,0827.3,4.99,0.00,28.9,27.2,00.0,37.8,30.7,18.5,0001.6,0014.31,0004.80,0004.12
2021-08-25 00:59:00,,0827.4,5.01,0.00,28.8,25.5,00.0,37.8,30.2,18.9,0001.1,0014.66,0004.80,0004.12
